Regional Weather Roundup
Issued by NWS

Home | Current Version | Previous Version | Text Only | Print | Product List | Glossary On
Versions: 1 2 3 4 5 6 7 8 9 10 11 12 13 14 15 16 17 18 19 20 21 22 23 24 25 26 27 28 29 30 31 32 33 34 35 36 37 38 39 40 41 42 43 44 45 46 47 48 49 50
000
ASUS43 KMKX 040400
RWRWI

WISCONSIN REGIONAL WEATHER ROUNDUP
NATIONAL WEATHER SERVICE MILWAUKEE/SULLIVAN WI
1100 PM CDT MON AUG 03 2015

NOTE: "FAIR" INDICATES FEW OR NO CLOUDS BELOW 12,000 FEET WITH NO
SIGNIFICANT WEATHER AND/OR OBSTRUCTIONS TO VISIBILITY.

WIZ001-002-006>008-014>016-023>028-040500-
NORTHWEST WISCONSIN

CITY           SKY/WX    TMP DP  RH WIND       PRES   REMARKS
SUPERIOR ARPT  CLOUDY    63  53  70 W5        29.90R
ASHLAND        CLOUDY    62  56  80 W5        29.88S
HAYWARD        CLEAR     64  52  64 VRB3      29.90S
SIREN          CLEAR     63  53  69 N3        29.92R
CUMBERLAND     PTCLDY    59  52  77 NW6       29.92R
RICE LAKE      PTCLDY    62  54  75 NW3       29.93R
CHETEK         CLOUDY    66  55  67 W3        29.91R
LADYSMITH      CLOUDY    64  56  77 CALM      29.91R
EAU CLAIRE     NOT AVBL
MENOMONIE      CLOUDY    67  55  64 W6        29.91R
NEW RICHMOND   MOCLDY    62  55  77 CALM      29.93R
OSCEOLA        MOCLDY    62  56  81 CALM      29.95R
$$

WIZ003>005-009-010-017-018-040500-
NORTH CENTRAL WISCONSIN

CITY           SKY/WX    TMP DP  RH WIND       PRES   REMARKS
MANITOWISH WTR CLOUDY    57  57 100 NW7       29.89S
ARBOR VITAE    CLOUDY    59  57  93 CALM      29.89S
WOODRUFF       CLOUDY    59  57  93 CALM      29.89S
RHINELANDER    CLOUDY    60  55  83 N3        29.89S
EAGLE RIVER    CLOUDY    56  56 100 CALM      29.88S
LAND O LAKES   LGT RAIN  58  56  92 W9        29.89S
PHILLIPS       CLOUDY    62  55  79 CALM      29.89R
TOMAHAWK       CLOUDY    61  55  79 W3        29.89S
MEDFORD        CLOUDY    62  56  80 CALM      29.90S
MERRILL        NOT AVBL
$$

WIZ029-030-035-036-043>047-040500-
CENTRAL WISCONSIN

CITY           SKY/WX    TMP DP  RH WIND       PRES   REMARKS
WAUSAU         CLOUDY    65  55  70 NW3       29.88R
MOSINEE        MOCLDY    61  54  77 W5        29.90S
MARSHFIELD     MOCLDY    57  52  83 SW6       29.90S
STEVENS POINT  PTCLDY    58  52  80 CALM      29.90S
WAUPACA        CLEAR     65  53  65 CALM      29.89S
WAUTOMA        NOT AVBL
WISC RAPIDS    LGT RAIN  56  51  84 W5        29.91S
CAMP DOUGLAS   NOT AVBL
$$

WIZ011>013-019>022-031-037>040-048>050-040500-
NORTHEAST WISCONSIN

CITY           SKY/WX    TMP DP  RH WIND       PRES   REMARKS
ANTIGO         PTCLDY    55  52  90 CALM      29.88S
SHAWANO        CLEAR     64  55  74 CALM      29.87S
OCONTO         CLEAR     57  57 100 CALM      29.85S
STURGEON BAY   PTCLDY    63  52  67 CALM      29.87S
GREEN BAY      PTCLDY    65  56  72 W7        29.87R
MANITOWOC      NOT AVBL
APPLETON       PTCLDY    63  50  63 NW7       29.89S
CLINTONVILLE   CLEAR     61  54  77 S3        29.87S
OSHKOSH        CLEAR     64  53  67 W3        29.89R
$$

WIZ032>034-041-042-053>061-040500-
SOUTHWEST WISCONSIN

CITY           SKY/WX    TMP DP  RH WIND       PRES   REMARKS
LA CROSSE      CLEAR     65  55  70 SE5       29.91R
SPARTA         CLEAR     56  52  84 CALM      29.93R
VIROQUA        CLEAR     62  52  70 SW5       29.94R
BOSCOBEL       CLEAR     59  55  87 CALM      29.93S
PRAIRIE DU CHI CLEAR     62  55  77 CALM      29.92S
PLATTEVILLE    CLEAR     64  55  73 CALM      29.95R
$$

WIZ056-057-062-063-064-067-068-040500-
SOUTH CENTRAL WISCONSIN

CITY           SKY/WX    TMP DP  RH WIND       PRES   REMARKS
REEDSBURG      CLEAR     63  54  72 CALM      29.92R
BARABOO/DELLS  CLEAR     61  50  66 CALM      29.92S
LONE ROCK      NOT AVBL
MINERAL POINT  CLEAR     64  52  63 CALM      29.94S
MADISON        PTCLDY    64  52  64 NW3       29.91S
MIDDLETON      CLEAR     61  55  81 CALM      29.93R
WATERTOWN      CLEAR     64  53  68 CALM      29.90S
MONROE         MOCLDY    68  54  60 W9        29.93S
JANESVILLE     CLEAR     63  54  72 CALM      29.91S
$$

WIZ051-052-058>065-066-070>072-040500-
SOUTHEAST WISCONSIN

CITY           SKY/WX    TMP DP  RH WIND       PRES   REMARKS
MILWAUKEE      PTCLDY    72  50  45 W7        29.89R
WAUKESHA       PTCLDY    64  50  59 W7        29.91S
MILWAUKEE/TIMM PTCLDY    68  48  49 W7        29.89S
RACINE         PTCLDY    68  52  56 W5        29.91R
BURLINGTON     CLEAR     59  54  83 W3        29.91R
KENOSHA        CLEAR     61  55  81 W5        29.90R
FOND DU LAC    MOCLDY    65  55  70 W7        29.89S
SHEBOYGAN      CLEAR     64  55  72 W3        29.88R
WEST BEND      CLEAR     68  52  56 W5        29.89S
JUNEAU         CLEAR     64  53  68 CALM      29.92R
$$

LSZ147-162-040500-
LAKE SUPERIOR

STATION/POSITION TIME  TEMP    WIND        PRES    WAVE
                       AIR SEA DIR/SP/G            HT/PER
                 (UTC) (F)     (DEG/KT/KT) (MB)    (FT/S)
W MID LAKE BUOY  0250   58 56  270/ 14/ 16 1009.7R   2/ 4
DEVILS ISLAND    0300   58     270/ 14/ 16 1011.0R
PORT WING        0340   63     270/  5/  7 1012.2R
SAXON HARBOR     0340   64     260/  5     1011.2R
$$

LMZ867-665-643>646-040500-
LAKE MICHIGAN

STATION/POSITION TIME  TEMP    WIND        PRES    WAVE
                       AIR SEA DIR/SP/G            HT/PER
                 (UTC) (F)     (DEG/KT/KT) (MB)    (FT/S)
CHAMBERS ISLAND  0300   60     230/  2/  3 1010.5R
N MID LAKE BUOY  0250   65 68   70/  2/  2 1010.0R   1/ 5
NORTHPORT PIER   0300   69     310/ 10/ 14 1010.2R
SISTER BAY       0318   69     350/ 12/ 13   N/A
ALGOMA LAKESHORE 0312             CALM       N/A
KEWAUNEE LAKESHO 0300   66     300/  2/  3 1010.3R
SHEBOYGAN LAKESH 0300   71     310/ 10/ 12 1011.5R
PORT WASHINGTON  0340   70     280/  3/  6 1012.2R
ATWATER BUOY     0300   69 62  270/  8/  8 1013.1R
MILWAUKEE LAKESH 0300   74     290/  8/ 11   N/A
KENOSHA   LAKESH 0300   73     270/  6/  8 1011.5R
$$

TC  - TEMPERATURE IN CELSIUS
VSB - VISIBILITY IN STATUTE MILES
WCI - WIND CHILL INDEX
HX  - HEAT INDEX



USA.gov is the U.S. government's official web portal to all federal, state and local government web resources and services.